Holbrook, NY

2:20 AM EDT on July 30, 2016 (GMT -0400)
Long Island Mac Arthur

Weather History for KISP - October, 2012

Change the Weather History Date:

Wednesday, October 3, 2012

  Actual Average Record
Temperature  
Mean Temperature 70 °F 59 °F  
Max Temperature 75 °F 68 °F 80 °F (2000)
Min Temperature 65 °F 50 °F 34 °F (2003)
Degree Days  
Heating Degree Days 0 7  
Month to date heating degree days 5 20  
Since 1 July heating degree days 58 97  
Cooling Degree Days 5 1  
Month to date cooling degree days 5 3  
Year to date cooling degree days 983 780  
Growing Degree Days 20 (Base 50)    
Moisture  
Dew Point 66 °F    
Average Humidity 91    
Maximum Humidity 100    
Minimum Humidity 82    
Precipitation  
Precipitation T in 0.12 in 0.86 in (2009)
Month to date precipitation 0.15 0.36  
Year to date precipitation 34.75 35.08  
Snow  
Snow 0.00 in 0.00 in - ()
Month to date snowfall 0.0 0.0  
Since 1 July snowfall 0.0 0.0  
Snow Depth 0.00 in    
Sea Level Pressure  
Sea Level Pressure 30.03 in    
Wind  
Wind Speed 4 mph (NE)    
Max Wind Speed 9 mph    
Max Gust Speed 10 mph    
Visibility 2 miles    
Events Fog , Rain    
T = Trace of Precipitation, MM = Missing Value Source: NWS Daily Summary

Daily Weather History Graph

Daily Weather History Graph

Search for Another Location

Airport or City:

Trip Planner

Search our weather history database for the weather conditions in past years. The results will help you decide how hot, cold, wet, or windy it might be!

Date:

Astronomy

Oct. 03, 2012 Rise Set
Actual Time 6:51 AM EDT 6:30 PM EDT
Civil Twilight 6:24 AM EDT 6:57 PM EDT
Nautical Twilight 5:52 AM EDT 7:29 PM EDT
Astronomical Twilight 5:20 AM EDT 8:01 PM EDT
Moon 8:19 PM EDT (10/3) 10:13 AM EDT (10/3)
Length of Visible Light 12h 33m
Length of Day
11h 38m
Waning Gibbous, 89% of the Moon is Illuminated
Oct 3
Waning Gibbous
Oct 8
Last Quarter
Oct 15
New
Oct 21
First Quarter
Oct 29
Full

Hourly Weather History & Observations

Time (EDT) Temp. Dew Point Humidity Pressure Visibility Wind Dir Wind Speed Gust Speed Precip Events Conditions
12:22 AM 66.2 °F 66.2 °F 100% 29.97 in 0.8 mi NE 3.5 mph - 0.01 in   Light Drizzle
12:56 AM 68.0 °F 66.9 °F 96% 29.97 in 0.8 mi NNE 3.5 mph - 0.01 in   Light Drizzle
1:56 AM 66.9 °F 66.0 °F 97% 29.97 in 0.2 mi Calm Calm - 0.00 in Fog Fog
2:41 AM 66.2 °F 66.2 °F 100% 29.97 in 0.1 mi NNE 5.8 mph - N/A Fog Fog
2:56 AM 66.9 °F 66.0 °F 97% 29.96 in 0.1 mi NNE 5.8 mph - N/A Fog Fog
3:10 AM 66.2 °F 66.2 °F 100% 29.96 in 0.1 mi NNE 5.8 mph - N/A Fog Fog
3:56 AM 66.0 °F 66.0 °F 100% 29.97 in 0.2 mi NNE 4.6 mph - N/A Fog Fog
4:56 AM 66.0 °F 64.9 °F 96% 29.98 in 0.2 mi NNE 5.8 mph - N/A Fog Fog
5:56 AM 64.9 °F 64.9 °F 100% 29.99 in 0.5 mi NNE 6.9 mph - N/A Fog Fog
7:54 AM 64.4 °F 64.4 °F 100% 30.03 in 0.2 mi North 4.6 mph - N/A Fog Fog
7:56 AM 64.9 °F 64.9 °F 100% 30.03 in 0.2 mi North 4.6 mph - N/A Fog Fog
8:56 AM 64.9 °F 64.9 °F 100% 30.05 in 0.2 mi NNE 6.9 mph - N/A Fog Fog
9:31 AM 66.2 °F 64.4 °F 94% 30.05 in 0.5 mi NNE 6.9 mph - N/A   Overcast
9:56 AM 66.0 °F 66.0 °F 100% 30.05 in 1.0 mi NNE 6.9 mph - N/A   Overcast
10:36 AM 66.2 °F 66.2 °F 100% 30.06 in 2.0 mi North 3.5 mph - N/A   Overcast
11:39 AM 69.8 °F 66.2 °F 88% 30.07 in 5.0 mi NE 3.5 mph - N/A   Overcast
11:56 AM 70.0 °F 66.9 °F 90% 30.06 in 5.0 mi NNE 3.5 mph - N/A   Overcast
12:56 PM 72.0 °F 66.9 °F 84% 30.05 in 7.0 mi Calm Calm - N/A   Overcast
1:56 PM 75.0 °F 69.1 °F 82% 30.03 in 10.0 mi East 6.9 mph - N/A   Overcast
2:32 PM 73.4 °F 68.0 °F 83% 30.04 in 10.0 mi SSE 6.9 mph - N/A   Overcast
2:52 PM 71.6 °F 68.0 °F 88% 30.04 in 9.0 mi SSE 6.9 mph - N/A   Overcast
2:56 PM 72.0 °F 68.0 °F 87% 30.04 in 9.0 mi South 8.1 mph - N/A   Overcast
3:56 PM 70.0 °F 66.9 °F 90% 30.04 in 4.0 mi SE 6.9 mph - N/A   Overcast
4:56 PM 68.0 °F 66.9 °F 96% 30.06 in 1.0 mi ESE 6.9 mph - N/A   Overcast
5:56 PM 68.0 °F 66.0 °F 93% 30.07 in 0.8 mi South 3.5 mph - N/A   Overcast
6:40 PM 66.2 °F 66.2 °F 100% 30.07 in 0.2 mi Calm Calm - 0.00 in Fog Light Drizzle
6:56 PM 66.9 °F 66.9 °F 100% 30.07 in 0.2 mi SE 3.5 mph - 0.00 in   Light Drizzle
7:56 PM 66.9 °F 66.9 °F 100% 30.08 in 0.2 mi Calm Calm - 0.00 in Fog , Rain Light Rain
8:56 PM 66.9 °F 66.9 °F 100% 30.08 in 0.2 mi East 3.5 mph - 0.00 in Fog Light Drizzle
9:56 PM 66.9 °F 66.9 °F 100% 30.09 in 0.2 mi Calm Calm - 0.00 in   Light Drizzle
10:56 PM 66.9 °F 66.9 °F 100% 30.11 in 0.2 mi SW 3.5 mph - 0.00 in Fog Fog
11:56 PM 66.9 °F 66.9 °F 100% 30.10 in 0.2 mi Calm Calm - 0.00 in Fog Light Drizzle